Powrót do katalogu

FENGYUN 1C DEB *

AktywnySSO
NORAD 46990·DEBRIS·🇨🇳 China

Wystrzelony May 10, 1999 z Taiyuan Satellite Launch Center

Loading…

Następne Przeloty (najbliższe 24 godziny)

TLE

NieaktualneSource: Space-Track

Epoka: Sep 2, 2026, 19:36 UTC

1 46990U 99025EZQ 26245.81681813  .00006286  00000-0  12852-2 0  9990
2 46990  98.2185  80.5021 0330231 356.7249  14.9936 14.32077370123009

Śledź FENGYUN 1C DEB * w czasie rzeczywistym z AllMySat

Download on the App Store